Temperature
16 16 15 15 15 15 15 15 14 14 14 14 14 14 13 13 13 13 13 13 13 12 12 12 12 12 12 12 12 11 11 11 11 11 11 11 11 11 11 11 11 11 11
15 15 15 15 15 15 14 14 14 14 14 14 14 13 13 13 13 13 13 13 12 12 12 12 12 12 12 12 12 11 11 11 11 11 11 11 11 11 11 11 11 11 11
15 15 15 15 15 14 14 14 14 14 14 14 13 13 13 13 13 13 12 12 12 12 12 12 12 12 12 11 11 11 11 11 11 11 11 11 11 11 10 10 10 10 11
15 15 15 15 14 14 14 14 14 14 14 13 13 13 13 13 12 12 12 12 12 12 12 11 11 11 11 11 11 11 11 11 11 11 11 11 10 10 10 10 10 10 10
15 15 15 14 14 14 14 14 14 13 13 13 13 13 13 12 12 12 12 12 12 11 11 11 11 11 11 11 11 11 11 11 10 10 10 10 10 10 10 10 10 10 10
15 14 14 14 14 14 14 13 13 13 13 13 13 12 12 12 12 12 11 11 11 11 11 11 11 11 11 11 11 11 10 10 10 10 10 10 10 10 10 10 10 10 10
14 14 14 14 14 14 13 13 13 13 13 13 12 12 12 12 11 11 11 11 11 11 11 11 11 11 11 11 10 10 10 10 10 10 10 10 10 10 10 10 10 10 10
14 14 14 14 13 13 13 13 13 13 12 12 12 12 12 12 11 11 11 11 11 11 11 11 11 11 10 10 10 10 10 10 10 10 10 10 10 10 9 9 9 9 9
13 13 13 13 13 13 13 13 12 12 12 12 12 12 12 11 11 11 11 11 11 11 11 10 10 10 10 10 10 10 10 10 10 9 9 9 9 9 9 9 9 9 9
13 13 13 13 12 12 12 12 12 12 12 12 11 11 11 11 11 11 11 10 10 10 10 10 10 10 10 10 10 10 10 10 9 9 9 9 9 9 9 9 9 9 9
12 12 12 12 12 12 12 12 12 11 11 11 11 11 11 11 11 11 10 10 10 10 10 10 10 10 10 10 9 9 9 9 9 9 9 9 9 9 9 9 9 8 8
12 12 12 12 12 12 12 11 11 11 11 11 11 11 11 11 11 11 10 10 10 10 10 10 10 10 10 9 9 9 9 9 9 9 9 9 9 9 9 8 8 8 8
11 11 11 11 11 11 11 11 11 10 10 10 10 10 10 10 10 10 10 10 10 10 10 10 10 9 9 9 9 9 9 9 9 9 9 9 9 8 8 8 8 8 8
11 11 11 11 10 10 10 10 10 10 10 10 10 10 10 10 10 10 10 10 10 9 9 9 9 9 9 9 9 8 8 8 8 8 8 8 8 8 8 8 8 7 7
10 10 10 10 10 10 10 10 10 10 9 9 9 9 9 10 10 10 10 9 9 9 9 9 9 9 9 8 8 8 8 8 8 8 8 8 8 7 7 7 7 7 7
10 10 10 10 10 9 9 9 9 9 9 9 9 9 9 9 9 9 9 9 9 9 8 8 8 8 8 8 8 8 8 8 8 8 7 7 7 7 7 7 6 6 6
9 9 9 9 9 9 9 8 8 9 8 8 8 8 8 8 8 8 8 8 8 8 8 8 8 8 8 8 8 8 8 8 8 7 7 7 7 7 6 6 6 6 6
9 9 9 8 8 8 8 8 8 8 8 8 8 8 8 8 8 8 8 8 8 8 7 8 8 8 8 7 7 7 7 7 7 7 7 7 6 6 6 6 6 6 6
8 8 8 8 8 8 8 7 7 7 7 7 7 7 7 7 7 7 7 7 7 7 7 7 7 7 7 7 7 7 7 7 7 7 7 6 6 6 6 6 6 6 5
8 7 7 7 7 7 7 7 7 7 6 6 6 6 6 6 6 6 6 6 6 6 6 6 7 7 7 7 6 6 6 6 6 6 6 6 6 6 6 6 5 5 5
7 7 7 7 7 6 6 6 6 6 6 6 6 6 6 6 6 6 6 6 6 6 6 6 6 6 6 6 6 6 6 6 6 6 6 6 6 6 5 5 5 5 5
6 6 6 6 6 6 6 6 6 6 6 5 5 5 5 5 5 5 5 5 5 5 5 5 5 6 6 6 6 6 6 5 5 5 5 5 5 5 5 5 5 5 5
6 6 6 6 5 5 5 5 5 5 5 5 5 5 5 5 5 5 5 5 5 5 5 5 5 5 5 5 5 5 5 5 5 5 5 5 5 5 5 5 5 4 4
5 5 5 5 5 5 5 5 5 4 4 4 4 4 4 4 4 4 4 4 4 4 4 4 4 4 4 4 4 5 5 4 4 4 4 4 4 4 4 4 4 4 4
5 5 5 5 4 4 4 4 4 4 4 4 4 4 4 3 3 4 4 4 4 4 4 4 4 4 4 4 4 4 4 4 4 4 4 4 4 4 4 4 4 4 4
4 4 4 4 4 4 4 4 4 3 3 3 3 3 3 3 3 3 3 3 3 3 3 3 3 3 3 3 4 4 4 4 3 3 3 3 3 3 3 3 3 3 3
Wind_Speed
3 3 3 3 3 3 3 4 3 2 2 2 3 2 2 2 2 2 2 3 3 2 1 2 2 2 2 2 2 2 2 3 2 1 1 1 0 1 2 2 2 1 1
3 3 3 3 3 3 4 3 3 3 3 3 3 2 2 2 2 3 2 3 3 2 2 2 2 2 2 2 2 2 2 2 3 2 1 1 1 1 0 1 1 1 1
2 2 2 2 3 4 4 3 3 3 3 2 2 3 3 3 3 3 3 3 3 3 3 3 3 3 3 2 3 3 2 2 2 2 1 1 1 1 1 1 1 2 1
2 2 3 3 3 4 4 3 3 3 3 3 3 3 3 3 3 3 3 3 3 3 3 4 4 5 5 4 3 3 3 2 2 2 1 1 1 1 0 0 1 1 1
2 3 4 3 3 3 3 3 3 3 3 3 2 2 3 3 4 4 4 4 3 3 3 3 4 5 6 5 4 4 4 3 3 2 2 1 1 1 2 1 1 1 2
2 4 3 2 2 3 3 3 3 3 3 2 3 3 3 4 5 6 5 4 4 4 4 4 4 5 6 6 6 6 7 5 5 4 3 3 4 3 2 2 2 0 2
3 3 2 2 3 3 3 2 3 4 3 3 3 3 4 5 6 6 6 4 4 5 5 4 4 4 5 4 5 6 6 7 7 6 5 6 5 5 5 3 3 3 3
3 3 3 2 3 3 3 3 4 3 4 4 4 4 4 5 6 6 6 4 4 5 5 5 5 4 5 5 4 3 4 5 6 5 5 6 5 5 6 5 4 2 1
3 4 4 3 3 3 4 5 4 4 4 4 4 4 4 5 7 7 5 3 4 5 5 5 5 6 7 7 5 4 4 4 5 6 6 5 5 6 6 4 3 2 2
4 4 3 3 4 5 6 5 4 4 4 4 4 4 5 5 7 7 6 4 4 4 4 5 7 7 8 8 6 6 5 5 3 3 3 3 3 5 7 6 5 3 2
4 3 2 3 4 4 4 3 3 4 3 3 4 4 5 6 6 7 7 5 5 4 4 4 5 8 9 8 8 7 7 5 3 3 2 2 1 2 3 5 5 4 4
2 2 3 3 3 3 2 3 3 3 3 4 3 4 4 5 5 6 8 8 6 5 5 5 5 8 8 8 7 7 7 4 2 2 2 2 3 3 4 4 5 5 5
2 3 3 3 3 2 2 2 2 2 3 3 3 4 4 3 4 7 8 8 8 5 5 6 6 7 7 6 7 7 6 4 3 3 4 4 3 3 2 2 2 3 3
3 3 3 3 3 2 2 2 2 3 3 4 4 4 4 4 4 4 4 4 6 5 4 4 5 5 4 5 4 4 4 4 4 5 4 3 2 2 2 2 2 2 2
3 3 3 3 3 3 3 3 4 4 5 5 5 4 4 5 6 6 4 4 4 4 2 1 1 2 3 3 3 3 3 3 4 3 3 3 2 3 3 2 2 2 3
3 4 3 3 2 2 3 4 4 4 6 6 5 4 5 6 7 6 6 6 6 6 3 2 4 4 5 5 4 4 4 5 5 4 4 4 4 4 3 2 2 3 4
3 4 3 3 2 3 3 3 3 4 4 5 5 5 5 6 5 5 5 5 6 6 4 4 4 5 5 5 5 5 5 5 4 4 5 5 4 4 4 4 4 4 5
4 4 4 3 3 3 3 3 3 3 3 3 4 4 5 5 5 4 3 2 2 3 3 4 5 5 5 5 5 5 5 4 4 4 5 5 5 5 5 5 5 6 6
4 3 3 3 3 3 2 3 3 3 3 3 3 3 4 4 3 3 1 2 3 3 4 4 4 4 4 5 5 5 5 5 5 5 5 6 6 5 6 6 6 7 6
4 6 5 3 3 2 2 2 3 3 3 3 3 3 2 1 1 1 1 1 3 3 3 4 4 4 4 5 5 5 5 5 5 6 6 6 6 6 7 7 7 6 7
3 4 5 3 2 3 2 2 3 3 3 3 3 3 2 2 2 2 2 2 3 4 4 3 3 3 4 4 4 5 6 6 6 6 6 6 6 6 7 7 7 7 7
3 3 2 2 3 3 3 2 2 2 3 3 3 3 3 2 2 2 2 3 3 3 3 3 3 3 4 4 4 5 5 6 6 7 7 7 6 7 6 6 7 6 7
3 3 3 3 3 3 3 2 2 2 2 3 3 2 2 2 2 2 3 3 3 3 2 2 3 3 3 4 4 5 5 6 6 6 6 7 7 7 7 7 8 8 8
3 3 3 3 3 2 3 3 2 2 2 2 2 2 3 3 3 3 3 3 3 3 3 3 3 4 5 5 5 5 6 7 6 6 7 7 7 6 6 7 8 9 9
2 3 3 3 3 3 3 3 3 2 2 3 3 3 3 3 3 4 3 3 3 3 3 3 4 4 5 6 6 6 7 7 7 6 5 6 7 7 7 7 7 7 7
2 3 3 3 3 2 2 2 3 3 3 3 3 3 3 3 3 3 3 3 3 3 3 4 4 5 6 7 8 8 8 8 8 7 5 5 6 6 6 6 7 7 7
Wind_Direction
201 200 201 216 209 201 202 213 216 221 220 220 222 212 205 199 179 165 174 164 173 188 180 171 181 161 161 157 145 138 140 143 174 266 282 307 338 13 19 13 15 23 358
209 194 206 212 203 206 217 225 219 222 222 219 212 206 209 203 185 180 181 171 173 188 204 181 193 176 176 167 159 169 170 163 164 203 265 309 308 291 345 338 345 340 296
199 193 205 209 211 219 224 227 222 223 228 216 203 206 212 208 196 196 190 187 188 198 203 198 201 182 191 188 184 184 180 166 157 171 213 276 304 342 26 358 355 336 325
192 198 215 223 227 228 227 225 227 220 213 214 215 220 215 212 207 203 198 200 200 205 210 210 208 197 198 195 193 192 176 158 152 158 192 231 253 315 92 271 335 335 320
192 213 229 229 230 235 229 226 226 223 224 218 215 227 223 216 217 211 206 207 203 210 217 219 219 214 209 197 196 189 175 168 165 174 193 203 220 213 218 212 216 316 299
206 228 237 225 220 229 228 223 222 227 227 213 215 220 229 235 236 220 205 201 204 207 220 232 232 222 218 218 216 198 184 180 185 186 201 213 224 215 199 188 177 174 279
232 243 244 233 234 239 237 223 229 229 220 219 229 224 234 244 241 229 215 198 205 211 216 221 232 229 214 213 223 216 213 212 200 189 201 218 215 205 183 188 202 208 226
245 256 255 239 244 246 234 236 236 230 221 222 230 234 237 245 243 240 226 204 214 223 223 219 218 228 218 203 198 204 221 229 223 213 215 225 221 201 190 193 196 206 261
267 264 259 248 245 240 239 241 236 227 228 229 229 228 233 251 243 235 222 203 223 233 231 225 219 223 225 204 189 201 223 248 243 231 234 234 223 202 176 144 148 161 235
268 269 261 251 249 246 244 244 237 228 232 234 241 236 232 245 247 238 222 203 224 236 237 235 232 225 221 205 194 197 214 233 228 235 241 245 224 202 192 184 182 186 208
278 281 269 255 252 252 250 244 233 229 231 236 249 252 244 244 249 242 230 213 219 227 230 234 234 227 222 215 204 205 221 216 202 201 213 220 207 203 208 207 199 195 202
301 293 282 273 271 282 264 259 241 225 228 238 251 265 259 251 246 244 238 232 223 219 230 230 226 220 220 215 212 216 212 197 177 186 203 220 222 227 229 223 220 223 228
315 294 288 287 280 275 255 250 248 231 236 244 247 258 268 262 254 250 242 237 232 227 233 227 224 218 213 214 215 207 196 185 180 195 216 228 231 230 220 217 221 233 256
321 307 299 293 294 294 277 241 227 227 237 245 250 260 268 270 258 249 238 237 235 238 241 235 225 218 205 205 203 204 201 197 196 208 219 229 215 204 212 209 212 211 241
317 314 308 291 283 285 285 265 245 235 231 234 240 241 248 258 261 255 240 233 226 223 204 190 186 185 194 202 202 203 200 198 211 212 209 214 219 219 226 212 203 204 223
315 313 308 300 291 285 290 302 287 270 263 254 253 252 257 261 273 258 242 236 225 201 181 202 208 206 207 207 210 215 211 213 214 210 211 213 218 224 232 226 214 218 234
287 296 303 299 291 285 283 283 299 308 294 274 266 262 266 273 276 264 247 232 212 188 197 212 214 213 215 215 215 215 221 221 213 208 214 218 222 224 225 230 226 230 238
290 291 294 283 276 271 270 274 272 277 297 303 294 278 278 274 271 268 251 187 206 206 215 216 221 220 219 221 223 224 225 219 214 216 219 222 221 222 225 228 228 231 237
291 288 284 282 276 271 272 273 275 271 271 283 302 307 295 289 284 282 182 182 208 224 230 229 226 225 225 224 227 227 224 224 224 222 224 225 224 223 228 229 230 235 236
291 295 298 289 283 282 282 275 273 271 268 269 274 285 310 331 325 304 256 235 227 234 236 236 235 233 233 229 226 227 228 229 228 229 229 228 225 226 230 230 229 231 235
290 296 304 301 285 279 275 271 270 269 268 271 271 272 262 244 241 247 245 245 244 245 243 240 240 239 238 238 233 227 227 232 230 231 232 230 228 230 233 232 233 235 238
295 296 299 290 288 281 278 270 275 275 271 275 288 289 265 259 251 246 252 258 257 253 242 236 238 239 238 237 237 238 239 239 236 234 236 235 233 234 234 233 236 237 240
299 304 304 299 291 289 286 273 269 269 273 276 281 287 278 270 267 263 262 265 267 265 266 250 245 252 252 251 245 238 244 250 249 241 237 239 236 234 234 235 236 239 240
304 300 300 298 293 282 276 272 269 271 276 283 286 282 276 272 272 269 267 268 266 265 264 261 254 254 257 261 263 257 257 265 266 255 243 240 240 241 238 239 240 239 239
309 305 301 291 286 280 278 274 270 273 279 281 283 285 282 279 279 277 266 262 259 261 268 271 272 268 264 264 269 270 274 275 277 276 261 247 244 241 240 242 244 245 241
305 304 303 295 287 283 280 277 276 278 278 281 282 280 279 280 282 283 275 265 268 271 274 275 275 279 282 278 274 275 277 274 274 276 272 255 247 247 245 243 243 243 244
Height
1517 1518 1518 1519 1519 1520 1520 1520 1520 1519 1519 1519 1518 1518 1517 1516 1516 1516 1516 1516 1516 1517 1517 1517 1518 1518 1519 1519 1519 1519 1519 1520 1519 1519 1519 1519 1519 1519 1519 1519 1519 1519 1519
1515 1515 1516 1516 1517 1517 1517 1517 1517 1517 1516 1516 1515 1515 1515 1514 1514 1514 1514 1514 1514 1514 1515 1515 1515 1516 1516 1517 1517 1517 1518 1518 1518 1517 1517 1517 1517 1518 1518 1518 1518 1518 1518
1513 1513 1513 1514 1514 1514 1514 1514 1514 1514 1513 1513 1513 1512 1512 1512 1512 1512 1512 1512 1512 1512 1513 1513 1513 1514 1514 1515 1515 1515 1515 1516 1516 1516 1515 1515 1516 1516 1516 1516 1516 1516 1517
1510 1510 1511 1511 1511 1511 1511 1511 1511 1510 1510 1509 1509 1509 1509 1509 1509 1509 1509 1510 1510 1510 1510 1511 1511 1511 1512 1512 1512 1513 1513 1513 1513 1513 1513 1513 1513 1514 1514 1514 1514 1514 1514
1507 1507 1507 1507 1508 1508 1507 1507 1507 1507 1506 1506 1506 1506 1506 1506 1506 1506 1506 1506 1507 1507 1508 1508 1508 1509 1509 1509 1510 1510 1510 1510 1511 1511 1511 1511 1511 1511 1511 1511 1512 1512 1512
1504 1504 1504 1504 1504 1503 1503 1503 1503 1503 1502 1502 1502 1501 1502 1502 1502 1502 1503 1503 1503 1504 1504 1505 1505 1506 1506 1506 1507 1507 1507 1508 1508 1508 1508 1508 1508 1509 1509 1509 1509 1509 1509
1500 1500 1500 1500 1500 1499 1499 1499 1499 1498 1498 1498 1497 1497 1497 1498 1498 1499 1499 1500 1500 1500 1500 1501 1502 1502 1503 1503 1503 1503 1504 1505 1505 1505 1505 1505 1506 1506 1506 1506 1507 1507 1507
1497 1496 1496 1496 1496 1495 1495 1494 1494 1494 1494 1493 1493 1493 1493 1493 1494 1494 1495 1495 1495 1496 1496 1497 1497 1498 1499 1499 1499 1500 1500 1501 1501 1502 1502 1502 1503 1503 1504 1504 1504 1504 1504
1493 1492 1492 1492 1491 1491 1490 1490 1489 1489 1489 1489 1489 1489 1489 1489 1490 1490 1491 1490 1491 1491 1492 1492 1493 1494 1495 1495 1495 1496 1496 1497 1498 1498 1498 1499 1499 1500 1500 1500 1500 1500 1500
1489 1488 1488 1488 1487 1486 1486 1485 1485 1485 1484 1484 1484 1484 1484 1485 1485 1486 1486 1486 1486 1486 1487 1488 1489 1489 1490 1491 1491 1491 1492 1492 1493 1494 1494 1495 1495 1495 1496 1496 1497 1497 1497
1485 1485 1484 1484 1483 1482 1481 1481 1480 1480 1480 1480 1480 1480 1480 1480 1481 1481 1481 1481 1481 1482 1482 1483 1483 1484 1485 1486 1487 1487 1488 1489 1489 1490 1490 1490 1491 1491 1492 1492 1493 1493 1493
1482 1481 1480 1479 1479 1478 1477 1476 1476 1475 1475 1475 1475 1475 1475 1476 1476 1476 1476 1477 1477 1477 1477 1478 1479 1480 1480 1481 1482 1483 1484 1484 1485 1485 1485 1486 1486 1487 1487 1488 1489 1489 1490
1479 1478 1476 1475 1475 1474 1473 1472 1471 1471 1470 1470 1470 1470 1470 1471 1471 1471 1472 1472 1472 1472 1473 1473 1474 1475 1476 1477 1477 1478 1479 1480 1480 1480 1481 1481 1482 1483 1483 1484 1484 1485 1485
1476 1475 1473 1472 1470 1469 1468 1468 1467 1466 1466 1465 1465 1465 1465 1465 1466 1466 1466 1467 1467 1467 1468 1468 1469 1470 1471 1472 1473 1474 1475 1475 1476 1476 1477 1478 1478 1479 1479 1479 1479 1480 1480
1473 1471 1470 1468 1466 1464 1464 1464 1463 1462 1462 1462 1461 1460 1460 1460 1460 1461 1461 1461 1462 1463 1463 1463 1464 1465 1466 1467 1468 1469 1470 1471 1471 1472 1472 1473 1473 1474 1474 1475 1475 1475 1475
1469 1468 1466 1464 1463 1461 1460 1459 1458 1458 1457 1457 1457 1456 1456 1456 1455 1455 1455 1456 1457 1458 1458 1458 1458 1459 1460 1462 1463 1464 1464 1465 1466 1467 1467 1468 1468 1469 1469 1470 1470 1470 1470
1466 1465 1463 1461 1459 1458 1456 1455 1454 1453 1453 1452 1452 1451 1451 1450 1450 1450 1450 1451 1452 1452 1452 1452 1453 1454 1455 1456 1457 1458 1459 1460 1461 1461 1462 1462 1463 1463 1464 1464 1464 1465 1465
1463 1461 1459 1458 1456 1455 1453 1452 1450 1448 1447 1446 1447 1446 1445 1445 1445 1445 1445 1445 1445 1446 1446 1447 1448 1449 1450 1451 1452 1453 1453 1454 1455 1455 1456 1457 1457 1458 1458 1458 1458 1459 1459
1458 1457 1455 1454 1453 1451 1450 1449 1447 1445 1444 1443 1442 1442 1441 1441 1440 1440 1440 1440 1439 1440 1441 1442 1443 1444 1444 1445 1446 1447 1447 1448 1449 1449 1450 1451 1451 1452 1452 1452 1452 1453 1453
1454 1453 1452 1450 1449 1447 1446 1445 1443 1442 1440 1439 1438 1438 1437 1436 1435 1435 1435 1435 1435 1436 1436 1437 1437 1438 1439 1440 1440 1441 1441 1441 1442 1443 1443 1444 1444 1445 1445 1446 1446 1446 1446
1450 1449 1448 1446 1445 1444 1443 1441 1440 1439 1437 1436 1435 1434 1433 1433 1432 1431 1431 1431 1431 1432 1432 1432 1433 1433 1434 1434 1434 1435 1435 1435 1435 1436 1437 1437 1438 1438 1439 1439 1439 1440 1440
1447 1445 1444 1443 1442 1441 1439 1438 1437 1435 1434 1433 1432 1431 1430 1429 1428 1428 1428 1428 1428 1428 1428 1428 1428 1428 1428 1429 1429 1428 1428 1428 1428 1429 1430 1431 1431 1431 1432 1432 1432 1433 1433
1443 1441 1440 1439 1438 1437 1436 1434 1433 1432 1431 1430 1429 1427 1426 1425 1425 1424 1424 1423 1423 1423 1423 1423 1423 1423 1423 1423 1423 1422 1422 1422 1423 1423 1423 1424 1424 1424 1425 1425 1425 1425 1426
1439 1438 1436 1435 1434 1433 1432 1431 1430 1428 1427 1426 1425 1424 1423 1422 1421 1420 1420 1419 1419 1419 1419 1418 1418 1418 1417 1417 1417 1416 1416 1416 1416 1417 1417 1417 1417 1417 1417 1417 1417 1418 1418
1436 1434 1433 1431 1430 1429 1428 1427 1426 1425 1424 1423 1422 1421 1419 1418 1417 1416 1415 1415 1414 1414 1413 1413 1412 1412 1412 1411 1411 1410 1410 1410 1410 1410 1410 1410 1409 1409 1410 1410 1410 1410 1410
1432 1431 1429 1428 1427 1425 1424 1423 1422 1421 1420 1419 1418 1417 1416 1414 1413 1411 1410 1410 1409 1408 1408 1407 1407 1406 1406 1406 1405 1405 1404 1404 1403 1403 1403 1403 1402 1402 1402 1403 1403 1403 1403